{"data":{"norad_id":42842,"epoch":"2026-05-25T05:00:41.543424Z","epoch_age_seconds":53410,"freshness":"FRESH","line1":"1 42842U 17042T   26145.20881416  .00015868  00000+0  55658-3 0  9991","line2":"2 42842  97.3827 326.9674 0008157 100.6473 259.5686 15.29489682484839","mean_motion":15.29489682,"eccentricity":0.0008157,"inclination_deg":97.3827,"raan_deg":326.9674,"arg_perigee_deg":100.6473,"mean_anomaly_deg":259.5686,"bstar":0.00055658,"rev_number":48483,"period_min":94.149049643605,"perigee_km":471.74476174144,"apogee_km":482.92878165259,"semimajor_km":6855.473771697,"source":"CELESTRAK","updated_at":"2026-05-25T13:38:13.530885Z"}}